,,Stat5,,Stat1,,Stat2,,Stat3,,Stat4,,Wind1,,Wind1,
time,status,PA1M_AVG,status,PR1M_SUM,status,RH1M_AVG,status,SR1M_AVG,status,TA1M_AVG,status,W1dAve1m,status,W1sAve1m,
2001-09-06, 00:00:00,VALID,919.029,VALID,0,VALID,97.9428,VALID,0,VALID,19.5884,VALID,109,VALID,0.571514,
2001-09-06, 00:01:00,VALID,919.022,VALID,0,VALID,97.9886,VALID,0,VALID,19.5984,VALID,121,VALID,0.276195,
2001-09-06, 00:02:00,VALID,919.011,VALID,0,VALID,98.0051,VALID,0.0169808,VALID,19.6085,VALID,122,VALID,0.552787,
2001-09-06, 00:03:00,VALID,919.002,VALID,0,VALID,98.0318,VALID,0.0509425,VALID,19.6048,VALID,117,VALID,0.529848,
2001-09-06, 00:04:00,VALID,918.993,VALID,0,VALID,98.0509,VALID,0,VALID,19.6048,VALID,121,VALID,0.504102,
2001-09-06, 00:05:00,VALID,918.97,VALID,0,VALID,98.0496,VALID,0,VALID,19.5991,VALID,126,VALID,0.396369,
2001-09-06, 00:06:00,VALID,918.941,VALID,0,VALID,98.0611,VALID,0.0169808,VALID,19.6051,VALID,123,VALID,0.45421,
2001-09-06, 00:07:00,VALID,918.9,VALID,0,VALID,98.1132,VALID,0,VALID,19.6018,VALID,124,VALID,0.136018,
2001-09-06, 00:08:00,VALID,918.861,VALID,0,VALID,98.1259,VALID,0.0169808,VALID,19.6018,VALID,133,VALID,0.469351,
2001-09-06, 00:09:00,VALID,918.831,VALID,0,VALID,98.173,VALID,0.0169808,VALID,19.6053,VALID,153,VALID,0.40004,
2001-09-06, 00:10:00,VALID,918.791,VALID,0,VALID,98.1971,VALID,0.0339617,VALID,19.6016,VALID,147,VALID,0.557292,
2001-09-06, 00:11:00,VALID,918.766,VALID,0,VALID,98.234,VALID,0.0509425,VALID,19.6018,VALID,138,VALID,0.310444,
2001-09-06, 00:12:00,VALID,918.754,VALID,0,VALID,98.276,VALID,0.0169808,VALID,19.5852,VALID,121,VALID,0,
2001-09-06, 00:13:00,VALID,918.758,VALID,0,VALID,98.2925,VALID,0.0339617,VALID,19.5889,VALID,95,VALID,0.254934,
2001-09-06, 00:14:00,VALID,918.755,VALID,0,VALID,98.323,VALID,0.0339617,VALID,19.5854,VALID,49,VALID,0.520904,
2001-09-06, 00:15:00,VALID,918.762,VALID,0,VALID,98.3472,VALID,0,VALID,19.5765,VALID,46,VALID,0.377111,
2001-09-06, 00:16:00,VALID,918.787,VALID,0,VALID,98.3344,VALID,-0.0849042,VALID,19.5837,VALID,41,VALID,0.745536,
2001-09-06, 00:17:00,VALID,918.784,VALID,0,VALID,98.3217,VALID,-0.101885,VALID,19.5645,VALID,45,VALID,1.22114,
2001-09-06, 00:18:00,VALID,918.796,VALID,0,VALID,98.3484,VALID,-0.101885,VALID,19.5546,VALID,49,VALID,1.02464,
2001-09-06, 00:19:00,VALID,918.792,VALID,0,VALID,98.2772,VALID,-0.101885,VALID,19.5459,VALID,39,VALID,0.949836,
2001-09-06, 00:20:00,VALID,918.809,VALID,0,VALID,98.1005,VALID,-0.0849042,VALID,19.4746,VALID,42,VALID,0.956003,
2001-09-06, 00:21:00,VALID,918.803,VALID,0,VALID,97.9759,VALID,-0.0849042,VALID,19.4256,VALID,67,VALID,0.443973,
2001-09-06, 00:22:00,VALID,918.802,VALID,0,VALID,97.9364,VALID,-0.101885,VALID,19.4319,VALID,71,VALID,0.0795272,
2001-09-06, 00:23:00,VALID,918.789,VALID,0,VALID,97.897,VALID,-0.0849042,VALID,19.4321,VALID,97,VALID,0.462462,
2001-09-06, 00:24:00,VALID,918.774,VALID,0,VALID,97.7788,VALID,-0.101885,VALID,19.4229,VALID,115,VALID,0.781641,
2001-09-06, 00:25:00,VALID,918.774,VALID,0,VALID,97.6567,VALID,-0.0679233,VALID,19.3998,VALID,130,VALID,0.858941,
2001-09-06, 00:26:00,VALID,918.754,VALID,0,VALID,97.6147,VALID,-0.101885,VALID,19.3966,VALID,148,VALID,0.944661,
2001-09-06, 00:27:00,VALID,918.758,VALID,0,VALID,97.5956,VALID,-0.101885,VALID,19.3901,VALID,118,VALID,0.690402,
2001-09-06, 00:28:00,VALID,918.745,VALID,0,VALID,97.4748,VALID,-0.101885,VALID,19.3874,VALID,92,VALID,0.554688,
2001-09-06, 00:29:00,VALID,918.737,VALID,0,VALID,97.4799,VALID,-0.101885,VALID,19.3871,VALID,104,VALID,0.259079,
2001-09-06, 00:30:00,VALID,918.734,VALID,0,VALID,97.5461,VALID,-0.118866,VALID,19.3968,VALID,96,VALID,0.0783253,
2001-09-06, 00:31:00,VALID,918.752,VALID,0,VALID,97.5664,VALID,-0.0679233,VALID,19.4063,VALID,39,VALID,0.0046875,
2001-09-06, 00:32:00,VALID,918.747,VALID,0,VALID,97.4901,VALID,-0.0849042,VALID,19.3904,VALID,132,VALID,0.303998,
2001-09-06, 00:33:00,VALID,918.745,VALID,0,VALID,97.3248,VALID,-0.101885,VALID,19.3841,VALID,138,VALID,0.910657,
2001-09-06, 00:34:00,VALID,918.749,VALID,0,VALID,97.0641,VALID,-0.0849042,VALID,19.3613,VALID,139,VALID,0.828125,
2001-09-06, 00:35:00,VALID,918.747,VALID,0,VALID,97.2765,VALID,-0.101885,VALID,19.3839,VALID,143,VALID,0.752003,
2001-09-06, 00:36:00,VALID,918.732,VALID,0,VALID,97.3884,VALID,-0.0849042,VALID,19.4418,VALID,126,VALID,0.875822,
2001-09-06, 00:37:00,VALID,918.719,VALID,0,VALID,97.1798,VALID,-0.0679233,VALID,19.442,VALID,109,VALID,0.714316,
2001-09-06, 00:38:00,VALID,918.71,VALID,0,VALID,97.0692,VALID,-0.101885,VALID,19.4229,VALID,128,VALID,0.455078,
2001-09-06, 00:39:00,VALID,918.705,VALID,0,VALID,96.8925,VALID,-0.101885,VALID,19.4167,VALID,130,VALID,0.791867,
2001-09-06, 00:40:00,VALID,918.685,VALID,0,VALID,96.6229,VALID,-0.101885,VALID,19.3941,VALID,125,VALID,0.586133,
2001-09-06, 00:41:00,VALID,918.696,VALID,0,VALID,96.7399,VALID,-0.101885,VALID,19.4038,VALID,115,VALID,0.555689,
2001-09-06, 00:42:00,VALID,918.689,VALID,0,VALID,96.6763,VALID,-0.101885,VALID,19.4169,VALID,85,VALID,0.682292,
2001-09-06, 00:43:00,VALID,918.691,VALID,0,VALID,96.7259,VALID,-0.101885,VALID,19.4264,VALID,82,VALID,0.59809,
2001-09-06, 00:44:00,VALID,918.685,VALID,0,VALID,96.6,VALID,-0.101885,VALID,19.4391,VALID,89,VALID,0.649671,
2001-09-06, 00:45:00,VALID,918.677,VALID,0,VALID,96.5148,VALID,-0.0679233,VALID,19.4291,VALID,83,VALID,0.484169,
2001-09-06, 00:46:00,VALID,918.664,VALID,0,VALID,96.4728,VALID,-0.0169808,VALID,19.4117,VALID,36,VALID,0.450247,
2001-09-06, 00:47:00,VALID,918.668,VALID,0,VALID,96.6966,VALID,0,VALID,19.4247,VALID,33,VALID,0.51098,
2001-09-06, 00:48:00,VALID,918.673,VALID,0,VALID,96.8632,VALID,-0.0339617,VALID,19.4277,VALID,31,VALID,0.432432,
2001-09-06, 00:49:00,VALID,918.672,VALID,0,VALID,96.9064,VALID,-0.0339617,VALID,19.4145,VALID,47,VALID,0.523661,
2001-09-06, 00:50:00,VALID,918.641,VALID,0,VALID,96.9865,VALID,0,VALID,19.3986,VALID,51,VALID,0.453776,
2001-09-06, 00:51:00,VALID,918.632,VALID,0,VALID,97.0463,VALID,0,VALID,19.3822,VALID,63,VALID,0.126202,
2001-09-06, 00:52:00,VALID,918.629,VALID,0,VALID,97.0374,VALID,-0.0169808,VALID,19.3633,VALID,91,VALID,0.372738,
2001-09-06, 00:53:00,VALID,918.628,VALID,0,VALID,97.1798,VALID,-0.0339617,VALID,19.3543,VALID,97,VALID,0.448191,
2001-09-06, 00:54:00,VALID,918.614,VALID,0,VALID,97.2917,VALID,0,VALID,19.3245,VALID,111,VALID,0.499107,
2001-09-06, 00:55:00,VALID,918.62,VALID,0,VALID,97.4812,VALID,-0.0339617,VALID,19.328,VALID,165,VALID,0.465745,
2001-09-06, 00:56:00,VALID,918.613,VALID,0,VALID,97.691,VALID,0,VALID,19.3342,VALID,163,VALID,0.728087,
2001-09-06, 00:57:00,VALID,918.611,VALID,0,VALID,97.8843,VALID,0.0169808,VALID,19.3536,VALID,156,VALID,0.373437,
2001-09-06, 00:58:00,VALID,918.596,VALID,0,VALID,97.9237,VALID,0,VALID,19.37,VALID,154,VALID,0,
2001-09-06, 00:59:00,VALID,918.583,VALID,0,VALID,97.9581,VALID,0,VALID,19.3531,VALID,106,VALID,0.309896,
2001-09-06, 01:00:00,VALID,918.584,VALID,0,VALID,98.0344,VALID,0,VALID,19.3665,VALID,121,VALID,0.204241,
2001-09-06, 01:01:00,VALID,918.574,VALID,0,VALID,98.0979,VALID,0,VALID,19.3596,VALID,135,VALID,0.41139,
2001-09-06, 01:02:00,VALID,918.551,VALID,0,VALID,98.103,VALID,0,VALID,19.3596,VALID,129,VALID,0.216216,
2001-09-06, 01:03:00,VALID,918.52,VALID,0,VALID,98.1475,VALID,-0.0169808,VALID,19.3501,VALID,122,VALID,0.238982,
2001-09-06, 01:04:00,VALID,918.496,VALID,0,VALID,98.1068,VALID,0.0169808,VALID,19.3434,VALID,102,VALID,0.200391,
2001-09-06, 01:05:00,VALID,918.49,VALID,0,VALID,98.1488,VALID,0,VALID,19.331,VALID,46,VALID,0.000919118,
2001-09-06, 01:06:00,VALID,918.498,VALID,0,VALID,98.2454,VALID,0,VALID,19.3568,VALID,8,VALID,0,
2001-09-06, 01:07:00,VALID,918.488,VALID,0,VALID,98.2569,VALID,-0.0339617,VALID,19.3531,VALID,8,VALID,0,
2001-09-06, 01:08:00,VALID,918.485,VALID,0,VALID,98.2887,VALID,-0.0339617,VALID,19.3866,VALID,8,VALID,0,
2001-09-06, 01:09:00,VALID,918.483,VALID,0,VALID,98.2925,VALID,-0.0679233,VALID,19.3894,VALID,13,VALID,0.237459,
2001-09-06, 01:10:00,VALID,918.472,VALID,0,VALID,98.2734,VALID,0,VALID,19.3921,VALID,347,VALID,0.150549,
2001-09-06, 01:11:00,VALID,918.48,VALID,0,VALID,98.0216,VALID,0,VALID,19.3178,VALID,305,VALID,0.360677,
2001-09-06, 01:12:00,VALID,918.475,VALID,0,VALID,97.8932,VALID,0,VALID,19.2729,VALID,305,VALID,0.00300481,
2001-09-06, 01:13:00,VALID,918.486,VALID,0,VALID,97.8945,VALID,-0.0169808,VALID,19.2729,VALID,333,VALID,0.0730469,
2001-09-06, 01:14:00,VALID,918.481,VALID,0,VALID,97.8958,VALID,0.0169808,VALID,19.2759,VALID,9,VALID,0.535056,
2001-09-06, 01:15:00,VALID,918.497,VALID,0,VALID,97.9263,VALID,0.0339617,VALID,19.2781,VALID,14,VALID,0.741186,
2001-09-06, 01:16:00,VALID,918.51,VALID,0.2,VALID,97.8284,VALID,0.118866,VALID,19.2742,VALID,13,VALID,0.843967,
2001-09-06, 01:17:00,VALID,918.534,VALID,0,VALID,97.7203,VALID,0.0849042,VALID,19.2423,VALID,15,VALID,0.727385,
2001-09-06, 01:18:00,VALID,918.563,VALID,0,VALID,97.6313,VALID,0.0679233,VALID,19.1969,VALID,21,VALID,0.708882,
2001-09-06, 01:19:00,VALID,918.585,VALID,0,VALID,97.6173,VALID,0.101885,VALID,19.1718,VALID,27,VALID,0.709498,
2001-09-06, 01:20:00,VALID,918.591,VALID,0,VALID,97.5524,VALID,0.118866,VALID,19.1293,VALID,27,VALID,1.0454,
2001-09-06, 01:21:00,VALID,918.61,VALID,0,VALID,97.5283,VALID,0.101885,VALID,19.094,VALID,33,VALID,0.992399,
2001-09-06, 01:22:00,VALID,918.639,VALID,0,VALID,97.6859,VALID,0.0849042,VALID,19.0873,VALID,29,VALID,0.598884,
2001-09-06, 01:23:00,VALID,918.631,VALID,0,VALID,97.8347,VALID,0.101885,VALID,19.0873,VALID,22,VALID,0.350477,
2001-09-06, 01:24:00,VALID,918.617,VALID,0,VALID,97.9008,VALID,0.118866,VALID,19.097,VALID,11,VALID,0.262019,
2001-09-06, 01:25:00,VALID,918.591,VALID,0,VALID,98.0089,VALID,0.0849042,VALID,19.094,VALID,23,VALID,0.10403,
2001-09-06, 01:26:00,VALID,918.552,VALID,0,VALID,98.1119,VALID,0.0849042,VALID,19.0973,VALID,42,VALID,0.353618,
2001-09-06, 01:27:00,VALID,918.498,VALID,0,VALID,98.1831,VALID,0.0509425,VALID,19.0973,VALID,57,VALID,0.608929,
2001-09-06, 01:28:00,VALID,918.465,VALID,0,VALID,98.2073,VALID,0.101885,VALID,19.0908,VALID,34,VALID,0.390425,
2001-09-06, 01:29:00,VALID,918.45,VALID,0,VALID,98.2251,VALID,0.0849042,VALID,19.0846,VALID,57,VALID,0.34032,
2001-09-06, 01:30:00,VALID,918.412,VALID,0,VALID,98.1933,VALID,0.0339617,VALID,19.0528,VALID,109,VALID,0.628906,
2001-09-06, 01:31:00,VALID,918.391,VALID,0,VALID,98.2365,VALID,0,VALID,19.0276,VALID,121,VALID,0.686415,
2001-09-06, 01:32:00,VALID,918.379,VALID,0,VALID,98.2836,VALID,-0.0339617,VALID,19.0117,VALID,139,VALID,0.83572,
2001-09-06, 01:33:00,VALID,918.353,VALID,0,VALID,98.3052,VALID,0,VALID,18.973,VALID,136,VALID,0.868973,
2001-09-06, 01:34:00,VALID,918.329,VALID,0,VALID,98.3929,VALID,-0.0339617,VALID,18.9732,VALID,121,VALID,0.527138,
2001-09-06, 01:35:00,VALID,918.308,VALID,0,VALID,98.468,VALID,0,VALID,18.9861,VALID,105,VALID,0.428421,
2001-09-06, 01:36:00,VALID,918.291,VALID,0,VALID,98.4705,VALID,0,VALID,18.9792,VALID,102,VALID,0.321915,
2001-09-06, 01:37:00,VALID,918.259,VALID,0,VALID,98.5061,VALID,0,VALID,18.976,VALID,74,VALID,0.37207,
2001-09-06, 01:38:00,VALID,918.209,VALID,0,VALID,98.2874,VALID,-0.0169808,VALID,18.9698,VALID,106,VALID,0.709099,
2001-09-06, 01:39:00,VALID,918.176,VALID,0,VALID,98.1564,VALID,-0.0169808,VALID,18.9278,VALID,111,VALID,0.694511,
2001-09-06, 01:40:00,VALID,918.113,VALID,0,VALID,98.1348,VALID,-0.0169808,VALID,18.9474,VALID,137,VALID,0.611579,
2001-09-06, 01:41:00,VALID,918.059,VALID,0,VALID,98.1641,VALID,-0.0339617,VALID,18.9861,VALID,154,VALID,0.719351,
2001-09-06, 01:42:00,VALID,918,VALID,0,VALID,98.2632,VALID,-0.0169808,VALID,19.0249,VALID,153,VALID,0.712582,
2001-09-06, 01:43:00,VALID,917.966,VALID,0,VALID,98.3294,VALID,-0.0339617,VALID,19.0609,VALID,147,VALID,0.48902,
2001-09-06, 01:44:00,VALID,917.952,VALID,0,VALID,98.3243,VALID,-0.0679233,VALID,19.0736,VALID,133,VALID,0.216797,
2001-09-06, 01:45:00,VALID,917.955,VALID,0,VALID,98.3612,VALID,-0.0169808,VALID,19.0699,VALID,128,VALID,0,
2001-09-06, 01:46:00,VALID,917.966,VALID,0,VALID,98.3777,VALID,-0.0169808,VALID,19.0634,VALID,127,VALID,0.183594,
2001-09-06, 01:47:00,VALID,917.969,VALID,0,VALID,98.3154,VALID,0,VALID,19.0535,VALID,103,VALID,0.660857,
2001-09-06, 01:48:00,VALID,917.984,VALID,0,VALID,98.3395,VALID,0,VALID,19.0085,VALID,86,VALID,1.00601,
2001-09-06, 01:49:00,VALID,917.989,VALID,0,VALID,98.44,VALID,0,VALID,19.0085,VALID,65,VALID,0.750651,
2001-09-06, 01:50:00,VALID,917.999,VALID,0,VALID,98.5265,VALID,0,VALID,18.9983,VALID,96,VALID,0.84375,
2001-09-06, 01:51:00,VALID,918.008,VALID,0,VALID,98.5595,VALID,0,VALID,18.9986,VALID,109,VALID,1.09807,
2001-09-06, 01:52:00,VALID,917.989,VALID,0,VALID,98.5405,VALID,-0.0169808,VALID,18.9958,VALID,110,VALID,0.897615,
2001-09-06, 01:53:00,VALID,917.981,VALID,0,VALID,98.5672,VALID,-0.0169808,VALID,18.97,VALID,121,VALID,0.702914,
2001-09-06, 01:54:00,VALID,917.983,VALID,0,VALID,98.5048,VALID,-0.0169808,VALID,18.9575,VALID,120,VALID,0.737331,
2001-09-06, 01:55:00,VALID,917.981,VALID,0,VALID,98.4057,VALID,0,VALID,18.9082,VALID,115,VALID,0.760045,
2001-09-06, 01:56:00,VALID,917.962,VALID,0,VALID,98.3764,VALID,-0.0169808,VALID,18.8796,VALID,110,VALID,1.06641,
2001-09-06, 01:57:00,VALID,917.961,VALID,0,VALID,98.3853,VALID,0,VALID,18.8533,VALID,100,VALID,0.991386,
2001-09-06, 01:58:00,VALID,917.934,VALID,0,VALID,98.3904,VALID,0,VALID,18.8468,VALID,96,VALID,0.723479,
2001-09-06, 01:59:00,VALID,917.918,VALID,0,VALID,98.4108,VALID,0,VALID,18.8438,VALID,100,VALID,1.21423,
2001-09-06, 02:00:00,VALID,917.9,VALID,0,VALID,98.4603,VALID,0,VALID,18.8498,VALID,93,VALID,0.967634,
2001-09-06, 02:01:00,VALID,917.879,VALID,0,VALID,98.44,VALID,0,VALID,18.8304,VALID,94,VALID,1.16727,
2001-09-06, 02:02:00,VALID,917.869,VALID,0,VALID,98.4146,VALID,-0.0169808,VALID,18.808,VALID,109,VALID,1.22961,
2001-09-06, 02:03:00,VALID,917.851,VALID,0,VALID,98.44,VALID,0,VALID,18.7983,VALID,115,VALID,0.80918,
2001-09-06, 02:04:00,VALID,917.834,VALID,0,VALID,98.4921,VALID,-0.0169808,VALID,18.7921,VALID,124,VALID,0.628689,
2001-09-06, 02:05:00,VALID,917.814,VALID,0,VALID,98.4959,VALID,-0.0339617,VALID,18.7958,VALID,131,VALID,0.595486,
2001-09-06, 02:06:00,VALID,917.786,VALID,0,VALID,98.529,VALID,0,VALID,18.7926,VALID,120,VALID,0.591741,
2001-09-06, 02:07:00,VALID,917.754,VALID,0,VALID,98.5341,VALID,0,VALID,18.7924,VALID,131,VALID,0.713199,
2001-09-06, 02:08:00,VALID,917.708,VALID,0,VALID,98.5303,VALID,-0.0169808,VALID,18.7859,VALID,139,VALID,0.722973,
2001-09-06, 02:09:00,VALID,917.674,VALID,0,VALID,98.5405,VALID,0,VALID,18.7728,VALID,142,VALID,0.231571,
2001-09-06, 02:10:00,VALID,917.641,VALID,0,VALID,98.5875,VALID,0,VALID,18.7698,VALID,142,VALID,0,
2001-09-06, 02:11:00,VALID,917.614,VALID,0,VALID,98.59,VALID,0,VALID,18.7794,VALID,140,VALID,0.215993,
2001-09-06, 02:12:00,VALID,917.59,VALID,0,VALID,98.6358,VALID,0,VALID,18.7762,VALID,144,VALID,0.715345,
2001-09-06, 02:13:00,VALID,917.548,VALID,0,VALID,98.6562,VALID,-0.0169808,VALID,18.7792,VALID,142,VALID,0.359575,
2001-09-06, 02:14:00,VALID,917.504,VALID,0,VALID,98.6663,VALID,0,VALID,18.7794,VALID,125,VALID,0.242188,
2001-09-06, 02:15:00,VALID,917.475,VALID,0,VALID,98.6803,VALID,0,VALID,18.7829,VALID,109,VALID,0.426398,
2001-09-06, 02:16:00,VALID,917.449,VALID,0,VALID,98.6536,VALID,0,VALID,18.7698,VALID,104,VALID,0.762035,
2001-09-06, 02:17:00,VALID,917.416,VALID,0,VALID,98.6473,VALID,0,VALID,18.7472,VALID,112,VALID,0.684896,
2001-09-06, 02:18:00,VALID,917.406,VALID,0,VALID,98.6841,VALID,0,VALID,18.7568,VALID,124,VALID,0.341546,
2001-09-06, 02:19:00,VALID,917.404,VALID,0,VALID,98.7083,VALID,0,VALID,18.7497,VALID,112,VALID,0.737891,
2001-09-06, 02:20:00,VALID,917.392,VALID,0,VALID,98.7045,VALID,0.0339617,VALID,18.7536,VALID,105,VALID,0.621795,
2001-09-06, 02:21:00,VALID,917.394,VALID,0,VALID,98.7185,VALID,0.0169808,VALID,18.7432,VALID,100,VALID,0.557091,
2001-09-06, 02:22:00,VALID,917.387,VALID,0,VALID,98.7401,VALID,0.0169808,VALID,18.7529,VALID,128,VALID,0.290799,
2001-09-06, 02:23:00,VALID,917.394,VALID,0,VALID,98.7528,VALID,0.0169808,VALID,18.7631,VALID,136,VALID,0.346834,
2001-09-06, 02:24:00,VALID,917.398,VALID,0,VALID,98.7426,VALID,0.0169808,VALID,18.7633,VALID,122,VALID,0.60403,
2001-09-06, 02:25:00,VALID,917.385,VALID,0,VALID,98.7388,VALID,0.0339617,VALID,18.7628,VALID,83,VALID,0.613692,
2001-09-06, 02:26:00,VALID,917.375,VALID,0,VALID,98.6104,VALID,0,VALID,18.7501,VALID,94,VALID,1.08953,
2001-09-06, 02:27:00,VALID,917.378,VALID,0,VALID,98.3802,VALID,0,VALID,18.6992,VALID,94,VALID,1.00422,
2001-09-06, 02:28:00,VALID,917.364,VALID,0,VALID,98.2289,VALID,0.0169808,VALID,18.6433,VALID,92,VALID,1.29174,
2001-09-06, 02:29:00,VALID,917.373,VALID,0,VALID,98.1043,VALID,0,VALID,18.5979,VALID,95,VALID,1.05621,
2001-09-06, 02:30:00,VALID,917.361,VALID,0,VALID,98.0572,VALID,0,VALID,18.6048,VALID,91,VALID,0.934696,
2001-09-06, 02:31:00,VALID,917.353,VALID,0,VALID,98.0394,VALID,0.0339617,VALID,18.6046,VALID,84,VALID,0.698602,
2001-09-06, 02:32:00,VALID,917.332,VALID,0,VALID,98.0433,VALID,0.0509425,VALID,18.6106,VALID,95,VALID,1.02097,
2001-09-06, 02:33:00,VALID,917.337,VALID,0,VALID,98.014,VALID,0.0339617,VALID,18.611,VALID,102,VALID,0.957812,
2001-09-06, 02:34:00,VALID,917.315,VALID,0,VALID,98.0102,VALID,0.0169808,VALID,18.5949,VALID,105,VALID,1.04006,
2001-09-06, 02:35:00,VALID,917.303,VALID,0,VALID,98.0064,VALID,0.0169808,VALID,18.5751,VALID,111,VALID,1.08556,
2001-09-06, 02:36:00,VALID,917.29,VALID,0,VALID,97.9924,VALID,0.0509425,VALID,18.582,VALID,111,VALID,0.899219,
2001-09-06, 02:37:00,VALID,917.298,VALID,0,VALID,98.0547,VALID,0.0339617,VALID,18.5686,VALID,102,VALID,0.279731,
2001-09-06, 02:38:00,VALID,917.305,VALID,0,VALID,98.0458,VALID,0.0169808,VALID,18.5723,VALID,96,VALID,0.48546,
2001-09-06, 02:39:00,VALID,917.324,VALID,0,VALID,98.0674,VALID,0.0169808,VALID,18.5654,VALID,101,VALID,0.605804,
2001-09-06, 02:40:00,VALID,917.321,VALID,0,VALID,98.0318,VALID,0.0169808,VALID,18.5458,VALID,108,VALID,0.929893,
2001-09-06, 02:41:00,VALID,917.321,VALID,0,VALID,97.9797,VALID,-0.0169808,VALID,18.5499,VALID,105,VALID,0.860853,
2001-09-06, 02:42:00,VALID,917.32,VALID,0,VALID,98.0038,VALID,0,VALID,18.5532,VALID,67,VALID,0.59996,
2001-09-06, 02:43:00,VALID,917.337,VALID,0,VALID,98.0865,VALID,0.0679233,VALID,18.5686,VALID,16,VALID,1.00859,
2001-09-06, 02:44:00,VALID,917.329,VALID,0,VALID,98.0534,VALID,0.0509425,VALID,18.5753,VALID,42,VALID,0.911075,
2001-09-06, 02:45:00,VALID,917.325,VALID,0,VALID,97.967,VALID,0.0169808,VALID,18.5462,VALID,76,VALID,0.923077,
2001-09-06, 02:46:00,VALID,917.312,VALID,0,VALID,97.9441,VALID,-0.0339617,VALID,18.5412,VALID,95,VALID,0.677484,
2001-09-06, 02:47:00,VALID,917.324,VALID,0,VALID,97.9962,VALID,0,VALID,18.5181,VALID,101,VALID,0.309896,
2001-09-06, 02:48:00,VALID,917.331,VALID,0,VALID,98.0801,VALID,-0.0339617,VALID,18.5243,VALID,101,VALID,0,
2001-09-06, 02:49:00,VALID,917.341,VALID,0,VALID,98.192,VALID,-0.0169808,VALID,18.567,VALID,100,VALID,0,
2001-09-06, 02:50:00,VALID,917.358,VALID,0,VALID,98.192,VALID,-0.0849042,VALID,18.5834,VALID,59,VALID,0.0258247,
2001-09-06, 02:51:00,VALID,917.327,VALID,0,VALID,98.1157,VALID,-0.0679233,VALID,18.5633,VALID,56,VALID,0.390224,
2001-09-06, 02:52:00,VALID,917.323,VALID,0,VALID,98.0967,VALID,-0.0169808,VALID,18.5633,VALID,56,VALID,0.252344,
2001-09-06, 02:53:00,VALID,917.33,VALID,0,VALID,98.0064,VALID,-0.0339617,VALID,18.5446,VALID,299,VALID,1.05859,
2001-09-06, 02:54:00,VALID,917.337,VALID,0,VALID,97.7622,VALID,-0.0679233,VALID,18.4957,VALID,288,VALID,0.830529,
2001-09-06, 02:55:00,VALID,917.352,VALID,0,VALID,97.7686,VALID,-0.0509425,VALID,18.4925,VALID,298,VALID,0.0928819,
2001-09-06, 02:56:00,VALID,917.355,VALID,0,VALID,97.6719,VALID,-0.0169808,VALID,18.5156,VALID,36,VALID,0.155016,
2001-09-06, 02:57:00,VALID,917.36,VALID,0,VALID,97.2561,VALID,-0.0339617,VALID,18.4794,VALID,89,VALID,0.863076,
2001-09-06, 02:58:00,VALID,917.363,VALID,0,VALID,96.82,VALID,-0.0849042,VALID,18.4604,VALID,63,VALID,0.557566,
2001-09-06, 02:59:00,VALID,917.382,VALID,0,VALID,96.8848,VALID,-0.0509425,VALID,18.4994,VALID,17,VALID,0.357897,
2001-09-06, 03:00:00,VALID,917.4,VALID,0,VALID,96.8937,VALID,-0.0339617,VALID,18.5209,VALID,27,VALID,0.153083,
2001-09-06, 03:01:00,VALID,917.428,VALID,0,VALID,96.8416,VALID,0.0679233,VALID,18.543,VALID,30,VALID,0.183929,
2001-09-06, 03:02:00,VALID,917.43,VALID,0,VALID,96.8518,VALID,0.0169808,VALID,18.5365,VALID,43,VALID,0.895616,
2001-09-06, 03:03:00,VALID,917.456,VALID,0,VALID,96.9395,VALID,0.0509425,VALID,18.5469,VALID,40,VALID,1.0629,
2001-09-06, 03:04:00,VALID,917.459,VALID,0,VALID,96.8568,VALID,0,VALID,18.5172,VALID,78,VALID,1.17887,
2001-09-06, 03:05:00,VALID,917.468,VALID,0,VALID,96.6674,VALID,0.0509425,VALID,18.4657,VALID,98,VALID,1.2132,
2001-09-06, 03:06:00,VALID,917.479,VALID,0,VALID,96.7691,VALID,0.0339617,VALID,18.4171,VALID,116,VALID,1.11362,
2001-09-06, 03:07:00,VALID,917.473,VALID,0,VALID,97.0158,VALID,0.0169808,VALID,18.4302,VALID,120,VALID,1.32552,
2001-09-06, 03:08:00,VALID,917.47,VALID,0,VALID,97.2867,VALID,0.0679233,VALID,18.4337,VALID,118,VALID,1.13796,
2001-09-06, 03:09:00,VALID,917.45,VALID,0,VALID,97.5295,VALID,0.0849042,VALID,18.4494,VALID,140,VALID,1.22227,
2001-09-06, 03:10:00,VALID,917.436,VALID,0,VALID,97.7177,VALID,0.0339617,VALID,18.4655,VALID,134,VALID,1.06272,
2001-09-06, 03:11:00,VALID,917.433,VALID,0,VALID,97.8017,VALID,0.0509425,VALID,18.4724,VALID,121,VALID,1.39931,
2001-09-06, 03:12:00,VALID,917.437,VALID,0,VALID,97.8805,VALID,0.0339617,VALID,18.4694,VALID,127,VALID,0.779911,
2001-09-06, 03:13:00,VALID,917.45,VALID,0,VALID,97.9479,VALID,0.0169808,VALID,18.4556,VALID,130,VALID,1.00452,
2001-09-06, 03:14:00,VALID,917.443,VALID,0,VALID,97.9466,VALID,0.0339617,VALID,18.4757,VALID,133,VALID,0.953547,
2001-09-06, 03:15:00,VALID,917.447,VALID,0,VALID,97.9987,VALID,0,VALID,18.4662,VALID,129,VALID,0.857973,
2001-09-06, 03:16:00,VALID,917.439,VALID,0,VALID,98.0115,VALID,-0.0509425,VALID,18.4807,VALID,125,VALID,0.862305,
2001-09-06, 03:17:00,VALID,917.405,VALID,0,VALID,98.0242,VALID,-0.0849042,VALID,18.4706,VALID,134,VALID,0.94807,
2001-09-06, 03:18:00,VALID,917.396,VALID,0,VALID,98.0572,VALID,-0.0509425,VALID,18.4835,VALID,115,VALID,0.584736,
2001-09-06, 03:19:00,VALID,917.386,VALID,0,VALID,98.0776,VALID,-0.0679233,VALID,18.487,VALID,122,VALID,0.730369,
2001-09-06, 03:20:00,VALID,917.354,VALID,0,VALID,98.1043,VALID,-0.0509425,VALID,18.483,VALID,122,VALID,0.633213,
2001-09-06, 03:21:00,VALID,917.343,VALID,0,VALID,98.0229,VALID,-0.0509425,VALID,18.4964,VALID,125,VALID,0.926398,
2001-09-06, 03:22:00,VALID,917.316,VALID,0.2,VALID,98.0407,VALID,-0.0849042,VALID,18.4867,VALID,131,VALID,0.756546,
2001-09-06, 03:23:00,VALID,917.297,VALID,0,VALID,97.9797,VALID,-0.0509425,VALID,18.4865,VALID,131,VALID,0.805122,
2001-09-06, 03:24:00,VALID,917.283,VALID,0,VALID,97.8309,VALID,-0.0849042,VALID,18.487,VALID,132,VALID,0.935697,
2001-09-06, 03:25:00,VALID,917.284,VALID,0,VALID,97.6249,VALID,-0.0679233,VALID,18.4475,VALID,133,VALID,1.26895,
2001-09-06, 03:26:00,VALID,917.275,VALID,0,VALID,97.3744,VALID,-0.0339617,VALID,18.448,VALID,129,VALID,1.35737,
2001-09-06, 03:27:00,VALID,917.264,VALID,0,VALID,96.9484,VALID,-0.0849042,VALID,18.4254,VALID,123,VALID,1.18249,
2001-09-06, 03:28:00,VALID,917.267,VALID,0,VALID,96.7411,VALID,-0.0679233,VALID,18.4316,VALID,117,VALID,1.30035,
2001-09-06, 03:29:00,VALID,917.278,VALID,0,VALID,96.6686,VALID,-0.0509425,VALID,18.4572,VALID,114,VALID,1.34108,
2001-09-06, 03:30:00,VALID,917.292,VALID,0,VALID,96.7208,VALID,-0.0339617,VALID,18.4937,VALID,104,VALID,1.0148,
2001-09-06, 03:31:00,VALID,917.311,VALID,0,VALID,96.8034,VALID,-0.0509425,VALID,18.493,VALID,109,VALID,1.16427,
2001-09-06, 03:32:00,VALID,917.303,VALID,0,VALID,96.8657,VALID,-0.0169808,VALID,18.4934,VALID,112,VALID,1.09734,
2001-09-06, 03:33:00,VALID,917.29,VALID,0,VALID,96.8289,VALID,0,VALID,18.4671,VALID,141,VALID,1.26837,